St. Joseph, KS

10:09 PM CST on December 06, 2019 (GMT -0600)
Rosecrans Memorial

Weather History for KSTJ - October, 2019

Change the Weather History Date:

Tuesday, October 8, 2019

  Actual Average Record
Temperature  
Mean Temperature 58 °F 58 °F  
Max Temperature 73 °F 70 °F 92 °F (1979)
Min Temperature 42 °F 45 °F 30 °F (1987)
Degree Days  
Heating Degree Days 7 8  
Month to date heating degree days 48 59  
Since 1 July heating degree days 53 139  
Cooling Degree Days 0 1  
Month to date cooling degree days 17 13  
Year to date cooling degree days 1466 1212  
Growing Degree Days 7 (Base 50)    
Moisture  
Dew Point 45 °F    
Average Humidity 67    
Maximum Humidity 96    
Minimum Humidity 38    
Precipitation  
Precipitation 0.00 in 0.10 in 1.25 in (1997)
Month to date precipitation 2.31 0.72  
Year to date precipitation 35.91 30.44  
Sea Level Pressure  
Sea Level Pressure 30.08 in    
Wind  
Wind Speed 8 mph (South)    
Max Wind Speed 21 mph    
Max Gust Speed 28 mph    
Visibility 9 miles    
Events      
T = Trace of Precipitation, MM = Missing Value Source: NWS Daily Summary

Daily Weather History Graph

Daily Weather History Graph

Search for Another Location

Airport or City:

Astronomy

Oct. 08, 2019 Rise Set
Actual Time 7:22 AM CDT 6:51 PM CDT
Civil Twilight 6:55 AM CDT 7:18 PM CDT
Nautical Twilight 6:24 AM CDT 7:49 PM CDT
Astronomical Twilight 5:52 AM CDT 8:20 PM CDT
Moon 4:49 PM CDT (10/8) 2:13 AM CDT (10/8)
Length of Visible Light 12h 22m
Length of Day
11h 28m
Waxing Gibbous, 78% of the Moon is Illuminated
Oct 8
Waxing Gibbous
Oct 13
Full
Oct 21
Last Quarter
Oct 27
New
Nov 4
First Quarter

Hourly Weather History & Observations

Time (CDT) Temp. Windchill Dew Point Humidity Pressure Visibility Wind Dir Wind Speed Gust Speed Precip Events Conditions
12:53 AM 46.0 °F - 44.1 °F 93% 30.17 in 10.0 mi Calm Calm - N/A   Clear
1:53 AM 45.0 °F - 43.0 °F 93% 30.16 in 7.0 mi Calm Calm - N/A   Clear
2:53 AM 45.0 °F - 42.1 °F 90% 30.16 in 10.0 mi Calm Calm - N/A   Clear
3:08 AM 44.1 °F - 42.1 °F 93% 30.16 in 1.5 mi Calm Calm - N/A   Clear
3:20 AM 44.1 °F - 42.1 °F 93% 30.16 in 1.0 mi Calm Calm - N/A   Clear
3:25 AM 44.1 °F 42.5 °F 42.1 °F 93% 30.16 in 3.0 mi ESE 3.5 mph - N/A   Clear
3:53 AM 45.0 °F - 42.1 °F 90% 30.15 in 10.0 mi Calm Calm - N/A   Clear
4:53 AM 43.0 °F - 41.0 °F 93% 30.15 in 10.0 mi Calm Calm - N/A   Clear
5:53 AM 42.1 °F - 39.9 °F 92% 30.15 in 10.0 mi Calm Calm - N/A   Clear
6:53 AM 42.1 °F 40.2 °F 39.9 °F 92% 30.15 in 10.0 mi SE 3.5 mph - N/A   Clear
7:53 AM 46.9 °F - 44.1 °F 90% 30.15 in 10.0 mi South 3.5 mph - N/A   Clear
8:53 AM 54.0 °F - 48.0 °F 80% 30.14 in 10.0 mi South 3.5 mph - N/A   Clear
9:53 AM 60.1 °F - 48.9 °F 67% 30.14 in 10.0 mi SW 3.5 mph - N/A   Clear
10:53 AM 66.0 °F - 44.1 °F 45% 30.12 in 10.0 mi South 13.8 mph 24.2 mph N/A   Clear
11:53 AM 68.0 °F - 45.0 °F 43% 30.10 in 10.0 mi South 15.0 mph 23.0 mph N/A   Clear
12:53 PM 70.0 °F - 44.1 °F 39% 30.07 in 10.0 mi South 16.1 mph 24.2 mph 0.00 in   Clear
1:53 PM 71.1 °F - 46.0 °F 41% 30.04 in 10.0 mi South 13.8 mph - N/A   Clear
2:53 PM 72.0 °F - 46.0 °F 40% 30.01 in 10.0 mi South 12.7 mph 23.0 mph N/A   Clear
3:53 PM 72.0 °F - 45.0 °F 38% 30.00 in 10.0 mi South 13.8 mph - N/A   Clear
4:53 PM 71.1 °F - 46.0 °F 41% 29.98 in 10.0 mi South 15.0 mph - N/A   Clear
5:53 PM 69.1 °F - 46.0 °F 44% 29.98 in 10.0 mi SSE 13.8 mph - N/A   Clear
6:53 PM 64.0 °F - 46.9 °F 54% 29.97 in 10.0 mi SSE 9.2 mph - N/A   Clear
7:53 PM 62.1 °F - 48.0 °F 60% 29.97 in 10.0 mi SSE 11.5 mph - N/A   Clear
8:53 PM 60.1 °F - 48.0 °F 64% 29.98 in 10.0 mi SSE 9.2 mph - N/A   Clear
9:53 PM 60.1 °F - 46.9 °F 62% 29.98 in 10.0 mi SSE 8.1 mph - N/A   Clear
10:53 PM 55.9 °F - 48.0 °F 75% 29.98 in 10.0 mi SSE 6.9 mph - N/A   Clear
11:53 PM 54.0 °F - 46.9 °F 77% 29.99 in 10.0 mi SSE 6.9 mph - N/A   Clear